Change the Weather History Date:

Tuesday, December 17, 2013

  Actual Average Record
Temperature  
Mean Temperature 68 °F -  
Max Temperature 79 °F 63 °F 79 °F (2013)
Min Temperature 57 °F 46 °F 42 °F (2001)
Cooling Degree Days 3    
Growing Degree Days 18 (Base 50)    
Moisture  
Dew Point 49 °F    
Average Humidity 60    
Maximum Humidity 81    
Minimum Humidity 26    
Precipitation  
Precipitation 0.00 in - - ()
Sea Level Pressure  
Sea Level Pressure 30.05 in    
Wind  
Wind Speed 2 mph (South)    
Max Wind Speed 7 mph    
Max Gust Speed -    
Visibility 9 miles    
Events      
Averages and records for this station are not official NWS values.
T = Trace of Precipitation, MM = Missing Value Source: NWS Daily Summary

Daily Weather History Graph

Daily Weather History Graph

Search for Another Location

Airport or City:

Trip Planner

Search our weather history database for the weather conditions in past years. The results will help you decide how hot, cold, wet, or windy it might be!

Date:

Astronomy

Dec. 17, 2013 Rise Set
Actual Time 6:45 AM PST 4:45 PM PST
Civil Twilight 6:17 AM PST 5:12 PM PST
Nautical Twilight 5:46 AM PST 5:43 PM PST
Astronomical Twilight 5:16 AM PST 6:13 PM PST
Moon 5:25 PM PST (12/17) 6:47 AM PST (12/17)
Length of Visible Light 10h 54m
Length of Day
10h 00m
Full, 100% of the Moon is Illuminated
Dec 17
Full
Dec 25
Last Quarter
Jan 1
New
Jan 7
First Quarter
Jan 15
Full

Hourly Weather History & Observations

Time (PST) Temp. Dew Point Humidity Pressure Visibility Wind Dir Wind Speed Gust Speed Precip Events Conditions
12:52 AM 57.9 °F 52.0 °F 81% 30.09 in 8.0 mi East 4.6 mph - N/A   Mostly Cloudy
1:52 AM 57.9 °F 48.9 °F 72% 30.09 in 8.0 mi Calm Calm - N/A   Mostly Cloudy
2:52 AM 57.0 °F 48.9 °F 74% 30.07 in 8.0 mi Calm Calm - N/A   Mostly Cloudy
3:52 AM 57.9 °F 50.0 °F 75% 30.06 in 8.0 mi Calm Calm - N/A   Mostly Cloudy
4:52 AM 57.9 °F 46.0 °F 65% 30.05 in 8.0 mi Calm Calm - N/A   Mostly Cloudy
5:52 AM 57.9 °F 46.9 °F 67% 30.06 in 8.0 mi Calm Calm - N/A   Mostly Cloudy
6:52 AM 59.0 °F 48.9 °F 69% 30.09 in 8.0 mi West 4.6 mph - N/A   Mostly Cloudy
7:52 AM 61.0 °F 46.0 °F 58% 30.10 in 8.0 mi SSE 3.5 mph - N/A   Mostly Cloudy
8:52 AM 68.0 °F 42.1 °F 39% 30.12 in 8.0 mi SE 3.5 mph - N/A   Mostly Cloudy
9:52 AM 73.0 °F 43.0 °F 34% 30.12 in 8.0 mi SE 3.5 mph - N/A   Mostly Cloudy
10:52 AM 75.0 °F 45.0 °F 34% 30.10 in 10.0 mi SW 3.5 mph - N/A   Scattered Clouds
11:52 AM 75.9 °F 45.0 °F 33% 30.07 in 10.0 mi NW 5.8 mph - N/A   Scattered Clouds
12:52 PM 77.0 °F 42.1 °F 29% 30.04 in 10.0 mi NW 6.9 mph - N/A   Scattered Clouds
1:52 PM 79.0 °F 41.0 °F 26% 30.02 in 10.0 mi Calm Calm - N/A   Scattered Clouds
2:52 PM 70.0 °F 53.1 °F 55% 30.02 in 10.0 mi South 3.5 mph - N/A   Mostly Cloudy
3:52 PM 71.1 °F 53.1 °F 53% 30.01 in 10.0 mi Calm Calm - N/A   Mostly Cloudy
4:52 PM 66.9 °F 54.0 °F 63% 30.02 in 10.0 mi ESE 3.5 mph - N/A   Mostly Cloudy
5:52 PM 64.0 °F 55.9 °F 75% 30.02 in 9.0 mi Calm Calm - N/A   Mostly Cloudy
6:52 PM 64.0 °F 55.0 °F 73% 30.02 in 9.0 mi Calm Calm - N/A   Mostly Cloudy
7:52 PM 64.0 °F 51.1 °F 63% 30.02 in 9.0 mi Calm Calm - N/A   Mostly Cloudy
8:52 PM 64.9 °F 55.0 °F 70% 30.03 in 10.0 mi SSW 5.8 mph - N/A   Mostly Cloudy
9:52 PM 63.0 °F 55.9 °F 78% 30.03 in 10.0 mi Calm Calm - N/A   Mostly Cloudy
10:52 PM 63.0 °F 55.0 °F 75% 30.01 in 10.0 mi Calm Calm - N/A   Mostly Cloudy
11:52 PM 62.1 °F 52.0 °F 70% 30.00 in 10.0 mi North 3.5 mph - N/A   Mostly Cloudy